Time,TemperatureF,DewpointF,PressureIn,WindDirection,WindDirectionDegrees,WindSpeedMPH,WindSpeedGustMPH,Humidity,HourlyPrecipIn,Conditions,Clouds,dailyrainin,SoftwareType,DateUTC
2013-03-14 00:16:00,36.6,23.0,30.29,NNW,348,5.0,-999.0,58,-99.99,,,0.00,weatherlink.com 1.10,2013-03-14 04:16:00,
2013-03-14 00:31:00,36.1,22.0,30.29,NNW,337,6.0,-999.0,58,-99.99,,,0.00,weatherlink.com 1.10,2013-03-14 04:31:00,
2013-03-14 00:46:00,35.7,22.0,30.30,WNW,287,6.0,-999.0,57,-99.99,,,0.00,weatherlink.com 1.10,2013-03-14 04:46:00,
2013-03-14 01:01:00,35.2,21.0,30.29,NW,321,11.0,-999.0,57,-99.99,,,0.00,weatherlink.com 1.10,2013-03-14 05:01:00,
2013-03-14 01:31:00,34.5,21.0,30.31,NW,307,7.0,-999.0,58,-99.99,,,0.00,weatherlink.com 1.10,2013-03-14 05:31:00,
2013-03-14 01:46:00,34.1,21.0,30.30,WNW,295,4.0,-999.0,58,-99.99,,,0.00,weatherlink.com 1.10,2013-03-14 05:46:00,
2013-03-14 02:01:00,33.8,21.0,30.30,NW,312,1.0,-999.0,59,-99.99,,,0.00,weatherlink.com 1.10,2013-03-14 06:01:00,
2013-03-14 02:16:00,33.5,21.0,30.31,NW,307,4.0,-999.0,60,-99.99,,,0.00,weatherlink.com 1.10,2013-03-14 06:16:00,
2013-03-14 02:31:00,33.2,21.0,30.31,NW,314,7.0,-999.0,60,-99.99,,,0.00,weatherlink.com 1.10,2013-03-14 06:31:00,
2013-03-14 02:47:00,32.9,20.0,30.31,WNW,285,5.0,-999.0,60,-99.99,,,0.00,weatherlink.com 1.10,2013-03-14 06:47:00,
2013-03-14 03:02:00,32.6,20.0,30.31,NW,317,7.0,-999.0,61,-99.99,,,0.00,weatherlink.com 1.10,2013-03-14 07:02:00,
2013-03-14 03:17:00,32.4,21.0,30.31,North,8,10.0,-999.0,62,-99.99,,,0.00,weatherlink.com 1.10,2013-03-14 07:17:00,
2013-03-14 03:32:00,32.2,20.0,30.31,NW,317,2.0,-999.0,62,-99.99,,,0.00,weatherlink.com 1.10,2013-03-14 07:32:00,
2013-03-14 03:47:00,32.1,20.0,30.30,North,351,5.0,-999.0,62,-99.99,,,0.00,weatherlink.com 1.10,2013-03-14 07:47:00,
2013-03-14 04:02:00,31.8,20.0,30.30,NNW,334,5.0,-999.0,62,-99.99,,,0.00,weatherlink.com 1.10,2013-03-14 08:02:00,
2013-03-14 04:17:00,31.8,20.0,30.30,WNW,300,5.0,-999.0,62,-99.99,,,0.00,weatherlink.com 1.10,2013-03-14 08:17:00,
2013-03-14 04:32:00,31.6,20.0,30.30,North,2,6.0,-999.0,62,-99.99,,,0.00,weatherlink.com 1.10,2013-03-14 08:32:00,
2013-03-14 04:47:00,31.4,20.0,30.29,NNW,337,17.0,-999.0,62,-99.99,,,0.00,weatherlink.com 1.10,2013-03-14 08:47:00,
2013-03-14 05:02:00,31.4,19.0,30.30,NNW,338,7.0,-999.0,61,-99.99,,,0.00,weatherlink.com 1.10,2013-03-14 09:02:00,
2013-03-14 05:17:00,31.2,19.0,30.30,NW,311,4.0,-999.0,61,-99.99,,,0.00,weatherlink.com 1.10,2013-03-14 09:17:00,
2013-03-14 05:32:00,31.0,19.0,30.30,WNW,296,0.0,-999.0,62,-99.99,,,0.00,weatherlink.com 1.10,2013-03-14 09:32:00,
2013-03-14 05:47:00,30.7,19.0,30.30,North,351,4.0,-999.0,63,-99.99,,,0.00,weatherlink.com 1.10,2013-03-14 09:47:00,
2013-03-14 06:17:00,30.1,20.0,30.30,WNW,296,4.0,-999.0,65,-99.99,,,0.00,weatherlink.com 1.10,2013-03-14 10:17:00,
2013-03-14 06:32:00,29.9,20.0,30.31,NNW,345,2.0,-999.0,66,-99.99,,,0.00,weatherlink.com 1.10,2013-03-14 10:32:00,
2013-03-14 06:47:00,29.6,20.0,30.32,WNW,296,4.0,-999.0,67,-99.99,,,0.00,weatherlink.com 1.10,2013-03-14 10:47:00,
2013-03-14 07:02:00,29.4,20.0,30.32,North,349,7.0,-999.0,68,-99.99,,,0.00,weatherlink.com 1.10,2013-03-14 11:02:00,
2013-03-14 07:17:00,29.2,20.0,30.33,WNW,285,4.0,-999.0,68,-99.99,,,0.00,weatherlink.com 1.10,2013-03-14 11:17:00,
2013-03-14 07:32:00,29.0,20.0,30.33,NW,319,7.0,-999.0,69,-99.99,,,0.00,weatherlink.com 1.10,2013-03-14 11:32:00,
2013-03-14 07:47:00,28.9,20.0,30.34,NW,323,4.0,-999.0,69,-99.99,,,0.00,weatherlink.com 1.10,2013-03-14 11:47:00,
2013-03-14 08:02:00,28.8,20.0,30.35,NNW,345,2.0,-999.0,70,-99.99,,,0.00,weatherlink.com 1.10,2013-03-14 12:02:00,
2013-03-14 08:17:00,28.8,20.0,30.35,WNW,303,11.0,-999.0,70,-99.99,,,0.00,weatherlink.com 1.10,2013-03-14 12:17:00,
2013-03-14 08:32:00,28.9,20.0,30.35,NW,318,6.0,-999.0,70,-99.99,,,0.00,weatherlink.com 1.10,2013-03-14 12:32:00,
2013-03-14 08:47:00,29.2,21.0,30.35,NW,306,0.0,-999.0,71,-99.99,,,0.00,weatherlink.com 1.10,2013-03-14 12:47:00,
2013-03-14 09:02:00,29.6,21.0,30.36,North,351,5.0,-999.0,70,-99.99,,,0.00,weatherlink.com 1.10,2013-03-14 13:02:00,
2013-03-14 09:17:00,30.3,21.0,30.37,NNE,25,3.0,-999.0,69,-99.99,,,0.00,weatherlink.com 1.10,2013-03-14 13:17:00,
2013-03-14 09:32:00,31.0,23.0,30.37,WSW,239,6.0,-999.0,72,-99.99,,,0.00,weatherlink.com 1.10,2013-03-14 13:32:00,
2013-03-14 09:47:00,31.6,21.0,30.38,West,261,1.0,-999.0,66,-99.99,,,0.00,weatherlink.com 1.10,2013-03-14 13:47:00,
2013-03-14 10:02:00,32.5,21.0,30.39,NNW,330,6.0,-999.0,64,-99.99,,,0.00,weatherlink.com 1.10,2013-03-14 14:02:00,
2013-03-14 10:17:00,33.9,22.0,30.39,North,351,5.0,-999.0,62,-99.99,,,0.00,weatherlink.com 1.10,2013-03-14 14:17:00,
2013-03-14 10:33:00,34.8,22.0,30.40,North,9,2.0,-999.0,59,-99.99,,,0.00,weatherlink.com 1.10,2013-03-14 14:33:00,
2013-03-14 10:48:00,35.7,22.0,30.40,NW,316,1.0,-999.0,58,-99.99,,,0.00,weatherlink.com 1.10,2013-03-14 14:48:00,
2013-03-14 11:03:00,37.4,22.0,30.41,NW,317,9.0,-999.0,55,-99.99,,,0.00,weatherlink.com 1.10,2013-03-14 15:03:00,
2013-03-14 11:18:00,38.1,22.0,30.39,NNW,345,4.0,-999.0,53,-99.99,,,0.00,weatherlink.com 1.10,2013-03-14 15:18:00,
2013-03-14 11:33:00,39.1,23.0,30.39,NW,319,2.0,-999.0,52,-99.99,,,0.00,weatherlink.com 1.10,2013-03-14 15:33:00,
2013-03-14 11:48:00,40.3,22.0,30.39,NW,323,0.0,-999.0,48,-99.99,,,0.00,weatherlink.com 1.10,2013-03-14 15:48:00,
2013-03-14 12:03:00,42.2,23.0,30.39,NW,305,4.0,-999.0,47,-99.99,,,0.00,weatherlink.com 1.10,2013-03-14 16:03:00,
2013-03-14 12:18:00,42.2,20.0,30.38,NNW,337,5.0,-999.0,42,-99.99,,,0.00,weatherlink.com 1.10,2013-03-14 16:18:00,
2013-03-14 12:33:00,44.2,22.0,30.38,NNW,333,1.0,-999.0,42,-99.99,,,0.00,weatherlink.com 1.10,2013-03-14 16:33:00,
2013-03-14 12:48:00,44.3,23.0,30.38,NE,37,6.0,-999.0,44,-99.99,,,0.00,weatherlink.com 1.10,2013-03-14 16:48:00,
2013-03-14 13:03:00,45.1,24.0,30.38,North,349,1.0,-999.0,43,-99.99,,,0.00,weatherlink.com 1.10,2013-03-14 17:03:00,
2013-03-14 13:18:00,47.5,24.0,30.37,North,356,6.0,-999.0,40,-99.99,,,0.00,weatherlink.com 1.10,2013-03-14 17:18:00,
2013-03-14 13:33:00,47.0,22.0,30.36,North,3,3.0,-999.0,38,-99.99,,,0.00,weatherlink.com 1.10,2013-03-14 17:33:00,
2013-03-14 13:48:00,46.8,23.0,30.36,NW,323,1.0,-999.0,39,-99.99,,,0.00,weatherlink.com 1.10,2013-03-14 17:48:00,
2013-03-14 14:03:00,48.1,22.0,30.35,NNE,31,7.0,-999.0,36,-99.99,,,0.00,weatherlink.com 1.10,2013-03-14 18:03:00,
2013-03-14 14:18:00,49.5,25.0,30.34,NNE,20,2.0,-999.0,38,-99.99,,,0.00,weatherlink.com 1.10,2013-03-14 18:18:00,
2013-03-14 14:33:00,50.9,25.0,30.35,WNW,303,9.0,-999.0,37,-99.99,,,0.00,weatherlink.com 1.10,2013-03-14 18:33:00,
2013-03-14 14:48:00,50.6,23.0,30.33,North,360,7.0,-999.0,34,-99.99,,,0.00,weatherlink.com 1.10,2013-03-14 18:48:00,
2013-03-14 15:03:00,50.6,23.0,30.33,NNW,338,5.0,-999.0,34,-99.99,,,0.00,weatherlink.com 1.10,2013-03-14 19:03:00,
2013-03-14 15:18:00,51.9,21.0,30.32,WNW,298,6.0,-999.0,30,-99.99,,,0.00,weatherlink.com 1.10,2013-03-14 19:18:00,
2013-03-14 15:33:00,52.3,23.0,30.31,NNW,332,4.0,-999.0,32,-99.99,,,0.00,weatherlink.com 1.10,2013-03-14 19:33:00,
2013-03-14 15:48:00,52.2,21.0,30.30,SSE,147,2.0,-999.0,29,-99.99,,,0.00,weatherlink.com 1.10,2013-03-14 19:48:00,
2013-03-14 16:03:00,53.0,20.0,30.30,North,356,7.0,-999.0,28,-99.99,,,0.00,weatherlink.com 1.10,2013-03-14 20:03:00,
2013-03-14 16:18:00,53.3,20.0,30.29,West,275,2.0,-999.0,27,-99.99,,,0.00,weatherlink.com 1.10,2013-03-14 20:18:00,
2013-03-14 16:33:00,54.4,21.0,30.29,WNW,283,7.0,-999.0,27,-99.99,,,0.00,weatherlink.com 1.10,2013-03-14 20:33:00,
2013-03-14 16:48:00,53.5,20.0,30.28,NW,321,2.0,-999.0,27,-99.99,,,0.00,weatherlink.com 1.10,2013-03-14 20:48:00,
2013-03-14 17:03:00,54.4,20.0,30.29,SW,221,5.0,-999.0,26,-99.99,,,0.00,weatherlink.com 1.10,2013-03-14 21:03:00,
2013-03-14 17:18:00,53.8,19.0,30.28,West,276,4.0,-999.0,26,-99.99,,,0.00,weatherlink.com 1.10,2013-03-14 21:18:00,
2013-03-14 17:33:00,54.6,23.0,30.27,WNW,284,2.0,-999.0,29,-99.99,,,0.00,weatherlink.com 1.10,2013-03-14 21:33:00,
2013-03-14 17:48:00,54.5,22.0,30.27,West,261,0.0,-999.0,28,-99.99,,,0.00,weatherlink.com 1.10,2013-03-14 21:48:00,
2013-03-14 18:03:00,53.3,21.0,30.27,WNW,301,5.0,-999.0,28,-99.99,,,0.00,weatherlink.com 1.10,2013-03-14 22:03:00,
2013-03-14 18:18:00,53.5,21.0,30.27,NNW,336,1.0,-999.0,28,-99.99,,,0.00,weatherlink.com 1.10,2013-03-14 22:18:00,
2013-03-14 18:33:00,53.5,21.0,30.27,WNW,284,2.0,-999.0,28,-99.99,,,0.00,weatherlink.com 1.10,2013-03-14 22:33:00,
2013-03-14 18:48:00,52.7,20.0,30.27,NW,323,6.0,-999.0,28,-99.99,,,0.00,weatherlink.com 1.10,2013-03-14 22:48:00,
2013-03-14 19:03:00,51.5,20.0,30.27,WNW,289,5.0,-999.0,29,-99.99,,,0.00,weatherlink.com 1.10,2013-03-14 23:03:00,
2013-03-14 19:18:00,51.0,20.0,30.27,WNW,303,4.0,-999.0,30,-99.99,,,0.00,weatherlink.com 1.10,2013-03-14 23:18:00,
2013-03-14 19:48:00,49.9,20.0,30.25,WNW,295,2.0,-999.0,31,-99.99,,,0.00,weatherlink.com 1.10,2013-03-14 23:48:00,
2013-03-14 20:03:00,49.1,20.0,30.26,NW,304,1.0,-999.0,32,-99.99,,,0.00,weatherlink.com 1.10,2013-03-15 00:03:00,
2013-03-14 20:18:00,47.9,21.0,30.26,NW,304,0.0,-999.0,34,-99.99,,,0.00,weatherlink.com 1.10,2013-03-15 00:18:00,
2013-03-14 20:33:00,46.7,20.0,30.26,NW,304,0.0,-999.0,35,-99.99,,,0.00,weatherlink.com 1.10,2013-03-15 00:33:00,
2013-03-14 20:48:00,46.2,22.0,30.26,NW,304,0.0,-999.0,38,-99.99,,,0.00,weatherlink.com 1.10,2013-03-15 00:48:00,
2013-03-14 21:03:00,46.1,22.0,30.26,NW,304,0.0,-999.0,39,-99.99,,,0.00,weatherlink.com 1.10,2013-03-15 01:03:00,
2013-03-14 21:18:00,45.8,23.0,30.27,WNW,286,2.0,-999.0,40,-99.99,,,0.00,weatherlink.com 1.10,2013-03-15 01:18:00,
2013-03-14 21:33:00,45.6,24.0,30.28,WNW,286,1.0,-999.0,42,-99.99,,,0.00,weatherlink.com 1.10,2013-03-15 01:33:00,
2013-03-14 21:48:00,45.8,25.0,30.28,NW,307,0.0,-999.0,44,-99.99,,,0.00,weatherlink.com 1.10,2013-03-15 01:48:00,
2013-03-14 22:03:00,45.4,24.0,30.28,NW,307,0.0,-999.0,44,-99.99,,,0.00,weatherlink.com 1.10,2013-03-15 02:03:00,
2013-03-14 22:18:00,45.0,25.0,30.28,NW,312,2.0,-999.0,46,-99.99,,,0.00,weatherlink.com 1.10,2013-03-15 02:18:00,
2013-03-14 22:33:00,44.8,24.0,30.28,NW,314,1.0,-999.0,44,-99.99,,,0.00,weatherlink.com 1.10,2013-03-15 02:33:00,
2013-03-14 22:49:00,44.9,26.0,30.28,NNW,327,1.0,-999.0,48,-99.99,,,0.00,weatherlink.com 1.10,2013-03-15 02:49:00,
2013-03-14 23:04:00,44.5,27.0,30.27,West,274,4.0,-999.0,51,-99.99,,,0.00,weatherlink.com 1.10,2013-03-15 03:04:00,
2013-03-14 23:19:00,44.6,27.0,30.28,NNW,327,1.0,-999.0,50,-99.99,,,0.00,weatherlink.com 1.10,2013-03-15 03:19:00,
2013-03-14 23:34:00,45.0,27.0,30.27,NW,310,6.0,-999.0,50,-99.99,,,0.00,weatherlink.com 1.10,2013-03-15 03:34:00,
2013-03-14 23:49:00,44.6,28.0,30.27,North,356,8.0,-999.0,53,-99.99,,,0.00,weatherlink.com 1.10,2013-03-15 03:49:00,